Weather History for Lancaster, OH

Change the Weather History Date:

Monday, November 19, 2012

  Actual Average Record
Temperature  
Mean Temperature 38 °F -  
Max Temperature 55 °F 51 °F 73 °F (1971)
Min Temperature 21 °F 32 °F 16 °F (2008)
Degree Days  
Heating Degree Days 27    
Moisture  
Dew Point 28 °F    
Average Humidity 75    
Maximum Humidity 92    
Minimum Humidity 42    
Precipitation  
Precipitation 0.00 in - - ()
Sea Level Pressure  
Sea Level Pressure 30.34 in    
Wind  
Wind Speed 0 mph (East)    
Max Wind Speed 6 mph    
Max Gust Speed -    
Visibility 10 miles    
Events      
Averages and records for this station are not official NWS values.
T = Trace of Precipitation, MM = Missing Value Source: NWS Daily Summary

Daily Weather History Graph

Daily Weather History Graph

Search for Another Location

Airport:

Trip Planner

Search our weather history database for the weather conditions in past years. The results will help you decide how hot, cold, wet, or windy it might be!

Date:

Astronomy

Nov. 19, 2012 Rise Set
Actual Time 7:20 AM EST 5:11 PM EST
Civil Twilight 6:51 AM EST 5:40 PM EST
Nautical Twilight 6:18 AM EST 6:13 PM EST
Astronomical Twilight 5:46 AM EST 6:45 PM EST
Moon 12:22 PM EST 11:37 PM EST
Length of Visible Light 10h 49m
Length of Day
9h 51m
Waxing Crescent, 40% of the Moon is Illuminated
Nov 19
Waxing Crescent
Nov 20
First Quarter
Nov 28
Full
Dec 6
Last Quarter
Dec 13
New

Hourly Weather History & Observations

Time (EST) Temp. Windchill Dew Point Humidity Pressure Visibility Wind Dir Wind Speed Gust Speed Precip Events Conditions
12:53 AM 25.0 °F - 21.9 °F 88% 30.41 in 10.0 mi Calm Calm - N/A   Clear
1:53 AM 25.0 °F - 21.9 °F 88% 30.39 in 10.0 mi Calm Calm - N/A   Clear
2:53 AM 23.0 °F - 19.9 °F 88% 30.40 in 10.0 mi Calm Calm - N/A   Clear
3:53 AM 23.0 °F - 19.9 °F 88% 30.39 in 10.0 mi Calm Calm - N/A   Clear
4:53 AM 23.0 °F - 19.9 °F 88% 30.40 in 10.0 mi Calm Calm - N/A   Clear
5:53 AM 21.9 °F - 19.9 °F 92% 30.40 in 10.0 mi Calm Calm - N/A   Clear
7:53 AM 26.1 °F - 23.0 °F 88% 30.40 in 10.0 mi Calm Calm - N/A   Clear
8:53 AM 32.0 °F - 28.0 °F 85% 30.40 in 9.0 mi Calm Calm - N/A   Clear
9:53 AM 37.9 °F - 30.9 °F 76% 30.40 in 9.0 mi Calm Calm - N/A   Clear
10:53 AM 44.1 °F 40.8 °F 30.0 °F 58% 30.38 in 10.0 mi SSE 5.8 mph - N/A   Clear
11:53 AM 48.0 °F - 30.9 °F 52% 30.36 in 10.0 mi Calm Calm - N/A   Clear
12:53 PM 53.1 °F - 33.1 °F 47% 30.33 in 10.0 mi Calm Calm - N/A   Clear
2:53 PM 55.0 °F - 32.0 °F 42% 30.30 in 10.0 mi Calm Calm - N/A   Clear
3:53 PM 55.0 °F - 35.1 °F 47% 30.28 in 10.0 mi NNE 4.6 mph - N/A   Clear
4:53 PM 51.1 °F - 37.0 °F 59% 30.28 in 10.0 mi Calm Calm - N/A   Clear
5:53 PM 42.1 °F - 34.0 °F 73% 30.28 in 10.0 mi Calm Calm - N/A   Clear
6:53 PM 37.9 °F - 32.0 °F 79% 30.29 in 10.0 mi Calm Calm - N/A   Clear
7:53 PM 35.1 °F - 30.9 °F 85% 30.27 in 10.0 mi Calm Calm - N/A   Clear
8:53 PM 35.1 °F - 30.9 °F 85% 30.26 in 10.0 mi Calm Calm - N/A   Clear
10:53 PM 35.1 °F - 30.9 °F 85% 30.23 in 10.0 mi Calm Calm - N/A   Clear
11:53 PM 34.0 °F - 30.0 °F 85% 30.22 in 10.0 mi Calm Calm - N/A   Clear